TimeEST,TemperatureF,Dew PointF,Humidity,Sea Level PressureIn,VisibilityMPH,Wind Direction,Wind SpeedMPH,Gust SpeedMPH,PrecipitationIn,Events,Conditions,WindDirDegrees,DateUTC
12:15 AM,10.2,7.7,90,30.14,10.0,ENE,3.5,-,N/A,Snow,Light Snow,60,2012-01-20 05:15:00
12:34 AM,9.1,6.8,90,30.14,7.0,Calm,Calm,-,N/A,Snow,Light Snow,0,2012-01-20 05:34:00
12:54 AM,8.6,6.4,91,30.15,7.0,ENE,3.5,-,N/A,Snow,Light Snow,60,2012-01-20 05:54:00
1:15 AM,8.6,6.1,89,30.15,5.0,Calm,Calm,-,N/A,Snow,Light Snow,0,2012-01-20 06:15:00
1:34 AM,7.5,4.8,89,30.17,5.0,Calm,Calm,-,N/A,Snow,Light Snow,0,2012-01-20 06:34:00
1:55 AM,8.6,5.7,88,30.17,7.0,Calm,Calm,-,N/A,Snow,Light Snow,0,2012-01-20 06:55:00
2:14 AM,8.8,5.4,86,30.17,7.0,ESE,4.6,-,N/A,Snow,Light Snow,120,2012-01-20 07:14:00
2:34 AM,9.0,5.9,87,30.17,10.0,East,3.5,-,N/A,Snow,Light Snow,100,2012-01-20 07:34:00
2:55 AM,9.5,6.6,88,30.18,7.0,SE,3.5,-,N/A,Snow,Light Snow,130,2012-01-20 07:55:00
3:14 AM,9.9,6.8,87,30.19,7.0,SE,5.8,-,N/A,Snow,Light Snow,140,2012-01-20 08:14:00
3:35 AM,9.7,6.4,87,30.19,7.0,SE,3.5,-,N/A,Snow,Light Snow,130,2012-01-20 08:35:00
3:55 AM,9.9,5.9,84,30.18,10.0,SE,4.6,-,N/A,Snow,Light Snow,130,2012-01-20 08:55:00
4:14 AM,9.5,5.5,84,30.17,10.0,ESE,6.9,-,N/A,Snow,Light Snow,120,2012-01-20 09:14:00
4:35 AM,9.5,5.0,82,30.17,10.0,ESE,5.8,-,N/A,,Overcast,120,2012-01-20 09:35:00
4:55 AM,9.5,5.0,82,30.17,10.0,ESE,4.6,-,N/A,,Overcast,120,2012-01-20 09:55:00
5:14 AM,9.5,4.8,81,30.19,10.0,South,3.5,-,N/A,,Overcast,170,2012-01-20 10:14:00
5:35 AM,9.5,5.0,82,30.20,10.0,SSE,3.5,-,N/A,,Overcast,160,2012-01-20 10:35:00
5:55 AM,9.5,5.5,84,30.20,10.0,Calm,Calm,-,N/A,,Overcast,0,2012-01-20 10:55:00
6:14 AM,10.0,5.9,83,30.20,10.0,Calm,Calm,-,N/A,,Overcast,0,2012-01-20 11:14:00
6:35 AM,10.0,6.6,86,30.19,10.0,Calm,Calm,-,N/A,,Overcast,0,2012-01-20 11:35:00
6:55 AM,10.2,6.8,86,30.20,10.0,Calm,Calm,-,N/A,,Overcast,0,2012-01-20 11:55:00
7:14 AM,10.2,7.2,87,30.22,10.0,Calm,Calm,-,N/A,,Overcast,0,2012-01-20 12:14:00
7:35 AM,10.4,7.7,89,30.23,10.0,South,3.5,-,N/A,,Overcast,180,2012-01-20 12:35:00
7:55 AM,10.2,7.7,90,30.22,10.0,Calm,Calm,-,N/A,,Overcast,0,2012-01-20 12:55:00
8:15 AM,10.4,8.4,92,30.24,10.0,Calm,Calm,-,N/A,,Mostly Cloudy,0,2012-01-20 13:15:00
8:35 AM,11.1,9.1,92,30.24,10.0,Calm,Calm,-,N/A,,Mostly Cloudy,0,2012-01-20 13:35:00
8:54 AM,11.3,9.3,92,30.23,10.0,ESE,4.6,-,N/A,,Mostly Cloudy,120,2012-01-20 13:54:00
9:15 AM,11.8,9.5,90,30.23,10.0,SE,5.8,-,N/A,,Scattered Clouds,140,2012-01-20 14:15:00
9:35 AM,12.2,9.5,89,30.22,10.0,SE,5.8,-,N/A,,Scattered Clouds,140,2012-01-20 14:35:00
9:54 AM,12.7,10.2,90,30.22,10.0,SSE,4.6,-,N/A,,Overcast,150,2012-01-20 14:54:00
10:15 AM,13.6,10.4,87,30.20,10.0,ESE,6.9,-,N/A,,Overcast,120,2012-01-20 15:15:00
10:34 AM,14.0,9.9,84,30.19,10.0,ESE,6.9,-,N/A,,Scattered Clouds,120,2012-01-20 15:34:00
10:55 AM,14.5,9.7,81,30.20,10.0,ESE,8.1,-,N/A,,Scattered Clouds,120,2012-01-20 15:55:00
11:15 AM,14.9,9.0,77,30.20,10.0,SE,8.1,-,N/A,,Overcast,130,2012-01-20 16:15:00
11:34 AM,15.3,8.2,74,30.21,10.0,SSE,5.8,-,N/A,,Overcast,150,2012-01-20 16:34:00
11:55 AM,15.6,8.6,74,30.19,10.0,SE,6.9,-,N/A,,Overcast,140,2012-01-20 16:55:00
12:14 PM,15.4,8.4,74,30.18,10.0,SE,4.6,-,N/A,,Overcast,130,2012-01-20 17:14:00
12:34 PM,15.6,7.9,72,30.17,10.0,ESE,8.1,-,N/A,,Overcast,110,2012-01-20 17:34:00
12:55 PM,15.8,8.4,73,30.15,10.0,ESE,8.1,-,N/A,,Overcast,120,2012-01-20 17:55:00
1:14 PM,15.6,8.2,73,30.15,10.0,East,6.9,-,N/A,,Overcast,100,2012-01-20 18:14:00
1:34 PM,15.6,8.1,72,30.15,10.0,ESE,5.8,-,N/A,,Overcast,110,2012-01-20 18:34:00
1:55 PM,14.9,9.7,80,30.13,1.2,ESE,5.8,-,N/A,Snow,Light Snow,110,2012-01-20 18:55:00
2:15 PM,14.7,10.8,84,30.12,1.8,East,5.8,-,N/A,Snow,Light Snow,100,2012-01-20 19:15:00
2:35 PM,14.7,11.1,86,30.11,2.0,East,8.1,-,N/A,Snow,Light Snow,100,2012-01-20 19:35:00
2:55 PM,14.5,11.3,87,30.10,1.2,East,5.8,-,N/A,Snow,Light Snow,100,2012-01-20 19:55:00
3:14 PM,14.4,11.8,90,30.11,0.8,East,6.9,-,N/A,Snow,Light Snow,100,2012-01-20 20:14:00
3:35 PM,14.0,11.7,90,30.12,0.5,East,5.8,-,N/A,Snow,Light Snow,100,2012-01-20 20:35:00
3:54 PM,14.0,11.8,91,30.13,0.8,ESE,5.8,-,N/A,Snow,Light Snow,110,2012-01-20 20:54:00
4:15 PM,14.4,12.2,91,30.14,0.8,East,3.5,-,N/A,Snow,Light Snow,90,2012-01-20 21:15:00
4:54 PM,14.4,12.6,93,30.15,0.8,NE,4.6,-,N/A,Snow,Light Snow,40,2012-01-20 21:54:00
5:15 PM,14.2,12.4,93,30.15,0.8,East,4.6,-,N/A,Snow,Light Snow,80,2012-01-20 22:15:00
5:34 PM,14.0,12.2,93,30.15,0.8,East,4.6,-,N/A,Snow,Light Snow,100,2012-01-20 22:34:00
5:54 PM,14.0,12.6,94,30.15,1.5,East,5.8,-,N/A,Snow,Light Snow,100,2012-01-20 22:54:00
6:15 PM,14.0,12.7,95,30.14,1.5,East,8.1,-,N/A,Snow,Light Snow,90,2012-01-20 23:15:00
6:35 PM,14.2,12.7,94,30.15,1.2,East,6.9,-,N/A,Snow,Light Snow,80,2012-01-20 23:35:00
6:54 PM,14.0,12.2,93,30.13,1.5,ENE,9.2,-,N/A,Snow,Light Snow,70,2012-01-20 23:54:00
7:34 PM,14.0,12.2,93,30.09,2.0,ENE,9.2,-,N/A,Snow,Light Snow,60,2012-01-21 00:34:00
7:55 PM,14.2,12.6,93,30.09,2.0,ENE,9.2,-,N/A,Snow,Light Snow,60,2012-01-21 00:55:00
8:15 PM,14.4,12.6,93,30.09,2.0,ENE,8.1,-,N/A,Snow,Light Snow,60,2012-01-21 01:15:00
8:34 PM,14.4,12.4,92,30.10,1.5,ENE,10.4,-,N/A,Snow,Light Snow,70,2012-01-21 01:34:00
8:55 PM,14.4,12.4,92,30.10,1.2,East,5.8,-,N/A,Snow,Light Snow,80,2012-01-21 01:55:00
9:15 PM,14.2,12.7,94,30.08,1.5,East,9.2,-,N/A,Snow,Light Snow,80,2012-01-21 02:15:00
9:34 PM,14.4,12.7,93,30.07,2.0,ENE,9.2,-,N/A,Snow,Light Snow,70,2012-01-21 02:34:00
9:55 PM,14.5,12.7,93,30.07,1.8,ENE,10.4,-,N/A,Snow,Light Snow,70,2012-01-21 02:55:00
10:15 PM,14.4,12.7,93,30.07,1.5,ENE,8.1,-,N/A,Snow,Light Snow,60,2012-01-21 03:15:00
10:34 PM,14.5,12.9,93,30.06,1.5,ENE,8.1,-,N/A,Snow,Light Snow,60,2012-01-21 03:34:00
10:55 PM,14.5,12.9,93,30.06,3.0,NE,6.9,-,N/A,Snow,Light Snow,50,2012-01-21 03:55:00
11:14 PM,14.7,13.1,93,30.05,5.0,NE,6.9,-,N/A,Snow,Light Snow,50,2012-01-21 04:14:00
11:35 PM,14.7,12.9,93,30.05,7.0,NNE,6.9,-,N/A,Snow,Light Snow,30,2012-01-21 04:35:00
11:54 PM,14.7,12.7,92,30.05,10.0,NNE,4.6,-,N/A,Snow,Light Snow,30,2012-01-21 04:54:00